�N����,����,�~����,�C��,���x,�C��,����,���ϕ���,�ő�u�ԕ���,�ő厞����,���˗�,�I�_���x,�n�����x,�ő啗���N��,DTYPE
"21/10/02","00:10",0.0,21.1,76.6,1001.5,330.3,3.0,5.1,333.9,0.00,16.9,22.8,"00:03:44",1
"21/10/02","00:20",0.0,21.0,76.7,1001.7,327.1,2.5,5.6,343.6,0.00,16.8,22.7,"00:14:40",1
"21/10/02","00:30",0.0,20.8,77.1,1001.9,326.2,2.6,5.8,319.6,0.00,16.7,22.7,"00:20:08",1
"21/10/02","00:40",0.0,20.6,77.9,1001.9,321.4,2.1,4.4,344.5,0.00,16.7,22.6,"00:38:40",1
"21/10/02","00:50",0.0,20.4,78.6,1002.2,313.0,1.5,3.7,319.5,0.00,16.6,22.6,"00:40:24",1
"21/10/02","01:00",0.0,20.3,79.4,1001.9,287.6,1.5,2.8,321.5,0.00,16.7,22.4,"00:51:44",1
"21/10/02","01:10",0.0,20.2,79.8,1002.2,283.0,1.3,2.4,244.6,0.00,16.6,22.7,"01:08:16",1
"21/10/02","01:20",0.0,20.1,80.1,1002.4,291.1,1.1,2.0,301.8,0.00,16.6,22.6,"01:17:20",1
"21/10/02","01:30",0.0,20.1,80.3,1002.4,329.1,1.3,2.6,315.0,0.00,16.6,22.5,"01:22:32",1
"21/10/02","01:40",0.0,19.7,80.7,1002.4,319.1,0.7,1.7,337.9,0.00,16.3,22.5,"01:31:36",1
"21/10/02","01:50",0.0,19.1,81.6,1002.9,314.6,0.8,1.4,331.7,0.00,15.9,22.5,"01:45:52",1
"21/10/02","02:00",0.0,19.2,82.6,1002.6,307.4,1.1,2.0,325.5,0.00,16.2,22.5,"01:54:56",1
"21/10/02","02:10",0.0,19.3,83.3,1002.9,328.0,1.3,2.1,334.4,0.00,16.4,22.3,"02:08:24",1
"21/10/02","02:20",0.0,19.5,83.5,1003.1,333.1,1.5,2.5,337.9,0.00,16.7,22.3,"02:19:20",1
"21/10/02","02:30",0.0,19.5,83.5,1003.6,321.8,1.6,2.8,329.0,0.00,16.7,22.4,"02:25:04",1
"21/10/02","02:40",0.0,19.5,83.4,1003.4,321.5,1.6,2.9,333.8,0.00,16.7,22.5,"02:30:08",1
"21/10/02","02:50",0.0,19.7,83.2,1003.4,328.9,1.7,3.2,340.8,0.00,16.8,22.3,"02:48:56",1
"21/10/02","03:00",0.0,19.5,83.1,1003.8,326.9,1.6,2.6,339.4,0.00,16.6,22.2,"02:53:44",1
"21/10/02","03:10",0.0,19.4,83.4,1003.8,334.6,1.8,3.6,349.6,0.00,16.6,22.3,"03:09:00",1
"21/10/02","03:20",0.0,19.4,83.4,1003.8,333.9,1.6,3.1,322.7,0.00,16.6,22.1,"03:10:40",1
"21/10/02","03:30",0.0,19.2,83.7,1004.1,339.5,1.5,3.1,346.3,0.00,16.4,22.3,"03:28:32",1
"21/10/02","03:40",0.0,19.1,84.0,1004.3,330.0,1.3,3.1,302.3,0.00,16.4,22.2,"03:35:52",1
"21/10/02","03:50",0.0,18.9,84.4,1004.1,331.9,1.3,2.0,333.7,0.00,16.3,22.2,"03:47:44",1
"21/10/02","04:00",0.0,18.9,85.0,1003.8,324.6,1.3,2.5,326.3,0.00,16.4,22.2,"03:58:08",1
"21/10/02","04:10",0.0,18.9,85.2,1003.8,322.6,1.7,3.1,352.9,0.00,16.4,22.1,"04:01:52",1
"21/10/02","04:20",0.0,18.9,85.4,1004.3,324.2,1.8,3.6,338.9,0.00,16.4,22.2,"04:15:36",1
"21/10/02","04:30",0.0,18.9,85.6,1004.3,328.7,2.1,3.4,340.4,0.00,16.5,22.1,"04:26:32",1
"21/10/02","04:40",0.0,18.9,85.7,1004.5,328.8,2.1,4.0,327.2,0.00,16.5,22.1,"04:39:04",1
"21/10/02","04:50",0.0,18.9,85.6,1005.0,334.6,2.0,3.5,335.5,0.00,16.5,22.2,"04:44:56",1
"21/10/02","05:00",0.0,18.8,85.7,1004.8,329.1,1.8,4.0,333.7,0.00,16.4,22.1,"04:51:44",1
"21/10/02","05:10",0.0,18.8,85.7,1005.0,332.2,2.1,3.1,345.9,0.00,16.4,22.1,"05:05:52",1
"21/10/02","05:20",0.0,18.8,85.8,1005.0,329.1,2.0,4.0,341.5,0.00,16.4,22.0,"05:10:02",1
"21/10/02","05:30",0.0,18.7,85.8,1005.0,323.2,2.0,4.0,337.5,0.00,16.3,21.9,"05:23:12",1
"21/10/02","05:40",0.0,18.7,85.9,1004.8,332.5,2.3,4.4,344.4,0.00,16.3,21.8,"05:37:52",1
"21/10/02","05:50",0.0,18.7,86.0,1005.2,327.9,2.5,4.8,332.2,0.00,16.4,22.0,"05:44:56",1
"21/10/02","06:00",0.0,18.5,86.0,1005.2,325.0,1.8,4.2,332.0,0.00,16.2,21.9,"05:51:52",1
"21/10/02","06:10",0.0,18.2,86.2,1005.5,330.3,1.5,2.9,323.2,0.00,15.9,22.0,"06:00:40",1
"21/10/02","06:20",0.0,17.9,86.7,1006.2,330.4,1.5,2.6,337.1,0.00,15.7,21.9,"06:12:48",1
"21/10/02","06:30",0.0,17.9,87.3,1006.0,328.0,1.5,3.3,328.8,0.00,15.8,22.0,"06:27:28",1
"21/10/02","06:40",0.0,18.3,87.4,1006.2,331.8,2.2,4.2,336.9,0.00,16.2,21.9,"06:35:44",1
"21/10/02","06:50",0.0,18.6,87.1,1006.0,323.7,1.8,4.5,340.0,0.00,16.5,21.8,"06:41:04",1
"21/10/02","07:00",0.0,18.9,86.5,1006.2,324.8,2.2,4.1,321.7,0.01,16.6,21.8,"06:50:08",1
"21/10/02","07:10",0.0,19.2,85.8,1006.7,327.4,1.8,3.9,324.9,0.02,16.8,21.7,"07:01:44",1
"21/10/02","07:20",0.0,19.5,84.9,1006.4,329.6,1.8,4.5,323.5,0.03,16.9,21.7,"07:10:40",1
"21/10/02","07:30",0.0,19.9,83.8,1006.7,328.0,1.7,3.2,337.2,0.05,17.1,21.8,"07:27:36",1
"21/10/02","07:40",0.0,20.5,82.4,1006.7,331.3,1.6,3.1,337.2,0.08,17.4,21.8,"07:31:04",1
"21/10/02","07:50",0.0,21.0,80.5,1006.4,326.8,1.3,2.6,307.6,0.10,17.6,21.7,"07:49:04",1
"21/10/02","08:00",0.0,21.4,78.4,1006.7,321.9,1.1,2.1,323.9,0.12,17.5,21.7,"07:53:04",1
"21/10/02","08:10",0.0,21.8,76.2,1006.7,325.7,1.5,3.5,334.7,0.15,17.5,21.7,"08:03:44",1
"21/10/02","08:20",0.0,22.2,75.3,1006.9,325.8,1.2,3.5,349.4,0.18,17.7,21.7,"08:14:08",1
"21/10/02","08:30",0.0,22.6,73.5,1006.9,304.9,1.2,2.8,335.3,0.20,17.7,21.6,"08:20:24",1
"21/10/02","08:40",0.0,23.1,71.7,1006.7,285.8,0.8,2.1,328.4,0.23,17.8,21.7,"08:34:24",1
"21/10/02","08:50",0.0,23.7,69.1,1006.9,303.7,0.8,2.5,333.2,0.26,17.7,21.7,"08:49:20",1
"21/10/02","09:00",0.0,23.8,67.7,1006.9,273.6,1.1,2.4,347.5,0.28,17.5,21.7,"08:50:08",1
"21/10/02","09:10",0.0,24.0,66.7,1006.7,293.3,1.2,3.1,217.7,0.31,17.5,21.6,"09:03:44",1
"21/10/02","09:20",0.0,24.4,64.8,1006.7,9.0,1.0,2.6,60.8,0.33,17.4,21.7,"09:19:44",1
"21/10/02","09:30",0.0,24.5,63.0,1006.7,10.0,2.0,5.0,18.1,0.35,17.0,21.8,"09:23:52",1
"21/10/02","09:40",0.0,24.5,63.6,1006.4,351.5,2.3,5.6,337.9,0.37,17.2,22.0,"09:33:52",1
"21/10/02","09:50",0.0,24.5,63.3,1006.2,347.1,2.3,5.7,354.8,0.39,17.1,21.9,"09:40:08",1
"21/10/02","10:00",0.0,25.3,63.3,1006.0,353.6,1.3,3.6,329.1,0.41,17.9,22.0,"09:50:16",1
"21/10/02","10:10",0.0,25.6,61.7,1006.0,352.0,1.3,3.6,1.1,0.42,17.7,22.0,"10:01:36",1
"21/10/02","10:20",0.0,25.8,60.4,1006.0,298.5,1.2,2.6,2.3,0.44,17.6,22.2,"10:10:40",1
"21/10/02","10:30",0.0,26.1,58.8,1005.7,348.7,1.2,3.6,304.3,0.45,17.5,22.1,"10:21:12",1
"21/10/02","10:40",0.0,26.4,57.4,1005.7,358.0,1.6,5.1,346.0,0.47,17.4,22.0,"10:32:56",1
"21/10/02","10:50",0.0,26.6,56.6,1006.0,317.5,1.2,2.5,351.5,0.48,17.3,22.2,"10:45:12",1
"21/10/02","11:00",0.0,26.9,54.3,1006.0,42.1,1.5,4.0,132.8,0.49,16.9,22.3,"10:58:56",1
"21/10/02","11:10",0.0,27.5,53.5,1006.2,331.0,1.1,3.4,346.2,0.50,17.3,22.2,"11:03:20",1
"21/10/02","11:20",0.0,27.7,50.9,1006.2,35.5,1.2,4.7,52.0,0.50,16.7,22.3,"11:19:04",1
"21/10/02","11:30",0.0,27.4,50.8,1006.0,2.7,1.8,4.4,352.2,0.51,16.4,22.3,"11:26:48",1
"21/10/02","11:40",0.0,27.8,50.1,1006.0,55.5,1.3,4.8,337.1,0.52,16.5,22.5,"11:39:44",1
"21/10/02","11:50",0.0,28.0,50.1,1006.2,343.8,1.1,2.2,343.9,0.52,16.7,22.4,"11:49:28",1
"21/10/02","12:00",0.0,27.9,47.7,1006.2,346.5,1.5,3.1,329.3,0.52,15.8,22.7,"11:51:36",1
"21/10/02","12:10",0.0,28.1,49.1,1006.0,322.9,1.6,3.4,326.4,0.52,16.5,22.7,"12:01:36",1
"21/10/02","12:20",0.0,28.1,48.1,1006.2,297.2,1.5,5.1,357.7,0.52,16.1,22.7,"12:11:28",1
"21/10/02","12:30",0.0,28.6,47.4,1005.7,287.7,1.0,2.5,20.7,0.52,16.4,22.7,"12:23:52",1
"21/10/02","12:40",0.0,28.5,42.8,1006.0,9.9,1.7,3.7,316.9,0.52,14.7,22.8,"12:33:20",1
"21/10/02","12:50",0.0,28.9,42.4,1005.7,16.4,1.3,2.5,10.6,0.51,14.9,22.9,"12:46:40",1
"21/10/02","13:00",0.0,29.4,42.5,1006.0,81.0,0.8,1.8,4.5,0.51,15.4,23.0,"12:51:12",1
"21/10/02","13:10",0.0,29.3,44.6,1006.2,6.6,1.1,3.4,353.8,0.50,16.0,23.0,"13:07:44",1
"21/10/02","13:20",0.0,28.8,49.1,1006.0,268.4,1.7,5.5,234.0,0.49,17.1,23.2,"13:17:12",1
"21/10/02","13:30",0.0,28.9,48.6,1006.0,266.3,1.3,3.5,223.9,0.48,17.0,23.2,"13:26:56",1
"21/10/02","13:40",0.0,28.9,48.1,1006.0,270.2,1.5,3.7,236.4,0.47,16.9,23.3,"13:33:12",1
"21/10/02","13:50",0.0,28.8,48.3,1005.7,265.4,1.7,5.1,219.0,0.45,16.8,23.2,"13:42:56",1
"21/10/02","14:00",0.0,28.6,48.0,1005.5,250.9,2.3,5.9,247.6,0.44,16.6,23.4,"13:51:36",1
"21/10/02","14:10",0.0,28.9,47.1,1005.7,254.9,1.8,4.7,226.2,0.42,16.5,23.4,"14:08:40",1
"21/10/02","14:20",0.0,28.9,46.4,1005.5,242.4,2.1,4.2,234.8,0.41,16.3,23.3,"14:15:28",1
"21/10/02","14:30",0.0,28.8,45.0,1005.5,254.6,1.8,4.4,261.7,0.39,15.7,23.6,"14:26:32",1
"21/10/02","14:40",0.0,28.8,45.9,1005.5,248.6,2.3,4.9,232.3,0.37,16.0,23.7,"14:31:28",1
"21/10/02","14:50",0.0,28.9,43.9,1005.5,279.1,2.0,4.5,251.8,0.34,15.4,23.6,"14:43:36",1
"21/10/02","15:00",0.0,29.1,44.6,1005.7,280.1,1.6,3.3,321.5,0.32,15.9,23.8,"14:56:24",1
"21/10/02","15:10",0.0,29.1,43.8,1005.7,273.8,1.6,3.7,252.1,0.30,15.6,23.7,"15:09:52",1
"21/10/02","15:20",0.0,29.2,44.4,1006.0,264.6,1.5,4.3,325.6,0.28,15.9,23.8,"15:19:44",1
"21/10/02","15:30",0.0,29.2,45.6,1006.2,320.1,1.7,3.6,346.5,0.25,16.3,23.8,"15:20:48",1
"21/10/02","15:40",0.0,28.8,43.1,1006.0,342.9,2.5,6.2,350.2,0.22,15.1,23.8,"15:39:36",1
"21/10/02","15:50",0.0,28.5,44.0,1006.0,334.2,2.6,5.6,332.6,0.20,15.1,23.9,"15:44:48",1
"21/10/02","16:00",0.0,28.7,44.5,1006.0,329.5,1.8,3.5,14.9,0.18,15.5,23.8,"15:52:00",1
"21/10/02","16:10",0.0,28.8,44.0,1006.2,328.3,1.6,3.5,316.4,0.15,15.4,23.8,"16:07:36",1
"21/10/02","16:20",0.0,28.5,45.0,1006.4,338.1,2.1,3.7,336.5,0.13,15.5,23.8,"16:14:08",1
"21/10/02","16:30",0.0,28.4,46.3,1006.4,356.1,1.7,4.3,332.2,0.11,15.8,23.8,"16:21:20",1
"21/10/02","16:40",0.0,27.5,48.2,1006.0,351.5,2.2,4.1,348.4,0.04,15.6,23.8,"16:34:00",1
"21/10/02","16:50",0.0,26.8,53.0,1006.4,340.6,2.8,7.8,349.0,0.04,16.5,23.9,"16:41:44",1
"21/10/02","17:00",0.0,26.3,57.4,1007.1,339.5,2.6,5.7,341.4,0.04,17.3,23.7,"16:58:00",1
"21/10/02","17:10",0.0,25.8,59.5,1006.9,338.1,2.0,4.5,325.6,0.03,17.4,23.8,"17:05:44",1
"21/10/02","17:20",0.0,25.6,60.1,1007.6,339.8,1.5,3.2,306.7,0.01,17.3,23.7,"17:10:48",1
"21/10/02","17:30",0.0,25.0,60.8,1007.6,353.7,1.5,3.5,343.4,0.00,16.9,23.7,"17:26:32",1
"21/10/02","17:40",0.0,24.4,62.4,1007.6,15.2,1.0,2.7,291.7,0.00,16.8,23.9,"17:30:08",1
"21/10/02","17:50",0.0,24.1,63.6,1007.6,56.3,0.6,1.6,17.5,0.00,16.8,23.7,"17:40:24",1
"21/10/02","18:00",0.0,23.7,65.4,1008.1,345.4,1.0,1.6,10.8,0.00,16.9,23.8,"17:57:20",1
"21/10/02","18:10",0.0,22.9,67.8,1008.1,330.5,1.0,1.6,339.9,0.00,16.7,23.6,"18:02:56",1
"21/10/02","18:20",0.0,22.4,70.1,1008.1,337.5,1.5,2.6,344.4,0.00,16.7,23.6,"18:13:44",1
"21/10/02","18:30",0.0,22.1,72.1,1008.6,342.6,1.2,1.9,324.5,0.00,16.9,23.7,"18:20:32",1
"21/10/02","18:40",0.0,21.8,74.3,1008.8,338.3,1.3,2.2,337.4,0.00,17.1,23.7,"18:33:20",1
"21/10/02","18:50",0.0,21.7,75.5,1008.8,341.4,1.5,2.6,341.1,0.00,17.2,23.7,"18:41:36",1
"21/10/02","19:00",0.0,21.7,75.8,1009.3,340.7,0.8,2.0,342.2,0.00,17.3,23.3,"18:50:08",1
"21/10/02","19:10",0.0,21.5,76.4,1009.7,315.5,1.2,2.9,338.0,0.00,17.2,23.5,"19:06:40",1
"21/10/02","19:20",0.0,21.3,77.3,1009.7,313.7,1.1,2.4,341.0,0.00,17.2,23.5,"19:17:36",1
"21/10/02","19:30",0.0,21.3,77.8,1009.7,305.6,1.5,4.0,343.6,0.00,17.3,23.5,"19:20:32",1
"21/10/02","19:40",0.0,21.2,78.1,1010.0,299.3,1.2,2.2,320.4,0.00,17.3,23.7,"19:31:20",1
"21/10/02","19:50",0.0,20.9,78.8,1010.4,308.8,1.2,1.8,324.0,0.00,17.1,23.5,"19:49:36",1
"21/10/02","20:00",0.0,20.9,79.3,1010.7,329.8,2.2,3.2,330.3,0.00,17.2,23.3,"19:51:20",1
"21/10/02","20:10",0.0,20.9,79.2,1010.4,332.3,1.8,3.2,324.2,0.00,17.2,23.4,"20:00:02",1
"21/10/02","20:20",0.0,20.7,79.6,1010.7,335.4,1.7,4.0,346.6,0.00,17.1,23.1,"20:11:20",1
"21/10/02","20:30",0.0,20.5,80.3,1011.2,336.4,1.6,2.7,329.8,0.00,17.0,23.4,"20:21:44",1
"21/10/02","20:40",0.0,20.3,80.7,1010.9,333.9,1.2,2.7,342.5,0.00,16.9,23.4,"20:31:44",1
"21/10/02","20:50",0.0,20.3,81.2,1011.2,344.4,1.3,2.7,349.6,0.00,17.0,23.2,"20:44:24",1
"21/10/02","21:00",0.0,20.3,81.6,1011.2,334.0,1.6,3.4,326.0,0.00,17.1,23.3,"20:56:48",1
"21/10/02","21:10",0.0,20.4,81.7,1011.2,332.9,2.0,3.5,328.9,0.00,17.2,23.2,"21:02:00",1
"21/10/02","21:20",0.0,20.4,81.7,1011.6,327.3,1.8,4.1,339.7,0.00,17.2,23.2,"21:15:04",1
"21/10/02","21:30",0.0,20.3,81.7,1011.6,335.9,1.5,2.5,326.3,0.00,17.1,23.0,"21:20:48",1
"21/10/02","21:40",0.0,19.9,82.2,1011.9,335.5,1.5,2.6,349.1,0.00,16.8,23.2,"21:39:52",1
"21/10/02","21:50",0.0,19.7,83.0,1012.1,337.0,1.3,3.1,333.8,0.00,16.8,23.2,"21:45:28",1
"21/10/02","22:00",0.0,19.6,83.9,1011.9,339.9,1.7,4.1,342.2,0.00,16.8,23.0,"21:59:04",1
"21/10/02","22:10",0.0,19.5,84.5,1011.9,336.4,1.7,3.6,329.2,0.00,16.9,23.0,"22:02:48",1
"21/10/02","22:20",0.0,19.4,84.7,1012.1,335.0,1.7,3.9,342.1,0.00,16.8,22.9,"22:10:24",1
"21/10/02","22:30",0.0,19.3,84.9,1012.6,336.9,1.5,2.9,333.0,0.00,16.7,22.9,"22:20:32",1
"21/10/02","22:40",0.0,19.1,85.2,1012.3,331.4,1.5,2.7,337.0,0.00,16.6,22.9,"22:38:08",1
"21/10/02","22:50",0.0,19.0,85.4,1012.6,326.1,1.0,1.9,344.5,0.00,16.5,22.8,"22:40:08",1
"21/10/02","23:00",0.0,18.8,85.5,1013.0,307.4,0.7,2.7,328.1,0.00,16.4,22.8,"22:50:32",1
"21/10/02","23:10",0.0,18.4,85.8,1012.8,146.2,0.3,1.1,319.5,0.00,16.0,22.9,"23:08:48",1
"21/10/02","23:20",0.0,17.9,86.1,1013.3,294.4,0.6,1.1,319.4,0.00,15.6,22.8,"23:14:56",1
"21/10/02","23:30",0.0,17.9,86.9,1013.0,299.7,1.1,1.9,322.4,0.00,15.7,22.7,"23:29:36",1
"21/10/02","23:40",0.0,17.7,87.3,1013.3,309.8,1.2,1.7,330.0,0.00,15.6,22.6,"23:32:40",1
"21/10/02","23:50",0.0,17.7,87.9,1013.3,286.7,1.2,1.8,321.9,0.00,15.7,22.7,"23:44:56",1
"21/10/02","24:00",0.0,17.7,88.2,1013.3,278.4,1.1,1.6,259.0,0.00,15.8,22.8,"23:52:56",1
